Station GTLM4 - Grand Traverse Light, MI Image indicating link to RSS feed of recent meteorological observations for station GTLM4


Conditions at GTLM4 as of
(11:40 am EDT)
1540 GMT on 05/28/2024:
     

Click on the graph icon in the table below to see a time series plot of the last five days of that observation.

5-day plot - Wind Direction Wind Direction (WDIR): W ( 270 deg true )
5-day plot - Wind Speed Wind Speed (WSPD): 8.0 kts
5-day plot - Wind Gust Wind Gust (GST): 9.9 kts
5-day plot - Atmospheric Pressure Atmospheric Pressure (PRES):29.93 in
5-day plot - Air Temperature Air Temperature (ATMP): 59.4 °F
5-day plot - Wind Speed at 10 Meters Wind Speed at 10 meters (WSPD10M): 7.8 kts
5-day plot - Wind Speed at 20 Meters Wind Speed at 20 meters (WSPD20M): 9.7 kts
5-day plot -  Wind Speed, Wind Gust and Atmospheric Pressure Combined plot of Wind Speed, Gust, and Air Pressure
Previous observations
TIME
(EDT)
5-day plot - Wind Direction
WDIR
 
5-day plot - Wind Speed
WSPD
kts
5-day plot - Wind Gust
GST
kts
5-day plot - Wave Height
WVHT
ft
5-day plot - Dominant Wave Period
DPD
sec
5-day plot - Average Wave Period
APD
sec
5-day plot - Mean Wave Direction
MWD
 
5-day plot - Atmospheric Pressure
PRES
in
5-day plot - Pressure Tendency
PTDY
in
5-day plot - Air Temperature
ATMP
°F
5-day plot - Water Temperature
WTMP
°F
5-day plot - Dew Point
DEWP
°F
5-day plot - Salinity
SAL
psu
5-day plot - Visibility
VIS
nmi
5-day plot - Tide (above MLLW)
TIDE
ft
2024-05-28 11:30 am W 8.9 9.9----29.93- 59.9-----
2024-05-28 11:20 am W 8.0 8.9----29.92- 58.8-----
2024-05-28 11:10 am W 8.0 8.9----29.92- 57.9-----
2024-05-28 11:00 am W 7.0 8.0----29.92+0.05 57.6-----
2024-05-28 10:50 am W 7.0 8.9----29.91- 57.4-----
2024-05-28 10:42 am W 8.0 8.9----29.91- 56.7-----
2024-05-28 10:40 am W 7.0 8.0----29.91- 56.7-----
2024-05-28 10:30 am W 6.0 7.0----29.91- 56.1-----
2024-05-28 10:20 am W 6.0 6.0----29.91- 55.2-----
2024-05-28 10:10 am W 5.1 6.0----29.91- 55.4-----
2024-05-28 10:00 am W 5.1 7.0----29.91+0.04 55.2-----
2024-05-28 09:50 am W 6.0 7.0----29.90- 55.0-----
2024-05-28 09:42 am W 6.0 8.0----29.90- 55.9-----
2024-05-28 09:40 am W 6.0 8.0----29.90- 55.9-----
2024-05-28 09:30 am W 6.0 7.0----29.90- 55.4-----
2024-05-28 09:20 am W 6.0 7.0----29.90- 56.7-----
2024-05-28 09:10 am W 6.0 6.0----29.89- 56.7-----
2024-05-28 09:00 am W 5.1 6.0----29.89+0.06 56.1-----
2024-05-28 08:50 am W 5.1 6.0----29.89- 55.4-----
2024-05-28 08:41 am W 5.1 11.1----29.89- 54.7-----
2024-05-28 08:40 am W 5.1 7.0----29.89- 54.7-----
2024-05-28 08:30 am W 6.0 7.0----29.88- 54.3-----
2024-05-28 08:20 am W 6.0 8.0----29.88- 54.0-----
2024-05-28 08:10 am W 7.0 8.0----29.88- 54.0-----
2024-05-28 08:00 am W 8.0 8.9----29.87+0.06 54.0-----
2024-05-28 07:50 am W 8.9 11.1----29.87- 53.6-----
2024-05-28 07:41 am W 8.9 13.0----29.87- 53.4-----
2024-05-28 07:40 am W 8.9 11.1----29.86- 53.4-----
2024-05-28 07:30 am W 8.9 11.1----29.86- 54.0-----
2024-05-28 07:20 am W 8.9 12.0----29.86- 54.0-----
2024-05-28 07:10 am W 11.1 13.0----29.85- 53.4-----
2024-05-28 07:00 am W 9.9 12.0----29.87+0.07 53.2-----
2024-05-28 06:50 am W 9.9 12.0----29.84- 52.5-----
2024-05-28 06:40 am W 11.1 15.9----29.84- 52.3-----
2024-05-28 06:30 am W 9.9 11.1----29.84- 52.3-----
2024-05-28 06:20 am W 9.9 13.0----29.83- 52.5-----
2024-05-28 06:10 amWSW 12.0 14.0----29.83- 52.5-----
2024-05-28 06:00 amWSW 12.0 14.0----29.83+0.03 52.7-----
2024-05-28 05:50 amWSW 14.0 15.9----29.82- 52.7-----
2024-05-28 05:40 amWSW 14.0 15.9----29.82- 52.7-----
2024-05-28 05:30 amWSW 14.0 15.9----29.82- 52.7-----
2024-05-28 05:20 amWSW 13.0 14.0----29.81- 52.9-----
2024-05-28 05:10 amWSW 12.0 14.0----29.81- 53.1-----
2024-05-28 05:00 amWSW 12.0 14.0----29.81+0.01 53.2-----
2024-05-28 04:50 amWSW 12.0 14.0----29.80- 53.1-----
2024-05-28 04:40 amWSW 12.0 15.9----29.80- 53.2-----
2024-05-28 04:30 amWSW 14.0 15.0----29.80- 53.2-----
2024-05-28 04:20 amWSW 11.1 12.0----29.80- 53.1-----
2024-05-28 04:10 amWSW 9.9 12.0----29.80- 52.9-----
2024-05-28 04:00 amWSW 11.1 12.0----29.80+0.01 53.1-----
2024-05-28 03:50 amWSW 12.0 13.0----29.80- 53.1-----
2024-05-28 03:40 amWSW 9.9 12.0----29.80- 52.9-----
2024-05-28 03:30 amWSW 11.1 12.0----29.80- 52.9-----
2024-05-28 03:20 amWSW 12.0 15.9----29.80- 52.9-----
2024-05-28 03:10 amWSW 12.0 14.0----29.80- 52.9-----
2024-05-28 03:00 amWSW 12.0 13.0----29.80+0.02 52.7-----
2024-05-28 02:50 amWSW 11.1 13.0----29.80- 52.9-----
2024-05-28 02:40 amWSW 12.0 13.0----29.80- 53.1-----
2024-05-28 02:30 amWSW 12.0 15.0----29.80- 53.1-----
2024-05-28 02:20 amWSW 13.0 14.0----29.80- 53.1-----
2024-05-28 02:10 amWSW 13.0 15.9----29.80- 53.1-----
2024-05-28 02:00 am W 14.0 15.0----29.80+0.03 53.2-----
2024-05-28 01:50 amWSW 13.0 15.0----29.80- 53.1-----
2024-05-28 01:40 amWSW 13.0 15.0----29.80- 53.1-----
2024-05-28 01:30 amWSW 11.1 13.0----29.80- 52.7-----
2024-05-28 01:20 amWSW 11.1 13.0----29.80- 52.5-----
2024-05-28 01:10 amWSW 12.0 14.0----29.80- 52.7-----
2024-05-28 01:04 amWSW 13.0 14.0----29.79- 52.7-----
2024-05-28 01:00 amWSW 13.0 14.0----29.79+0.03 52.7-----
2024-05-28 12:50 amWSW 11.1 12.0----29.79- 52.7-----
2024-05-28 12:40 amWSW 11.1 12.0----29.79- 52.9-----
2024-05-28 12:30 amWSW 9.9 11.1----29.79- 52.7-----
2024-05-28 12:20 amWSW 9.9 11.1----29.79- 52.9-----
2024-05-28 12:10 amWSW 8.0 8.9----29.78- 52.9-----
2024-05-28 12:03 amWSW 7.0 8.9----29.78- 52.9-----
2024-05-28 12:00 amWSW 7.0 8.9----29.78+0.05 52.9-----
2024-05-27 11:50 pmWSW 8.0 8.0----29.79- 52.7-----
2024-05-27 11:40 pmWSW 6.0 8.0----29.78- 52.7-----
2024-05-27 11:30 pmWSW 6.0 7.0----29.78- 52.7-----
2024-05-27 11:20 pmWSW 6.0 7.0----29.78- 52.7-----
2024-05-27 11:10 pm W 7.0 8.9----29.78- 52.9-----
2024-05-27 11:03 pmWNW 5.1 8.9----29.77- 52.9-----
2024-05-27 11:00 pmWNW 5.1 8.9----29.77+0.05 52.9-----
2024-05-27 10:50 pmWSW 5.1 7.0----29.77- 52.3-----
2024-05-27 10:40 pm SW 5.1 7.0----29.77- 52.0-----
2024-05-27 10:30 pm SW 5.1 7.0----29.77- 52.0-----
2024-05-27 10:20 pm SW 5.1 7.0----29.77- 52.2-----
2024-05-27 10:10 pmWSW 5.1 7.0----29.76- 52.3-----
2024-05-27 10:02 pm W 6.0 14.0----29.76- 51.8-----
2024-05-27 10:00 pmWNW 6.0 8.0----29.76+0.05 51.8-----
2024-05-27 09:50 pmWNW 1.0 2.9----29.75- 51.4-----
2024-05-27 09:40 pm- 0.0 5.1----29.75- 51.8-----
2024-05-27 09:30 pmNNE 4.1 8.9----29.75- 52.0-----
2024-05-27 09:20 pm NW 6.0 12.0----29.74- 52.2-----
2024-05-27 09:10 pm NW 11.1 15.9----29.74- 52.2-----
2024-05-27 09:02 pmNNW 14.0 15.9----29.73- 52.0-----
2024-05-27 09:00 pmNNW 14.0 15.9----29.73+0.05 52.0-----
2024-05-27 08:50 pmNNW 12.0 14.0----29.72- 52.0-----
2024-05-27 08:40 pm NW 7.0 8.9----29.73- 52.0-----
2024-05-27 08:30 pm NW 7.0 8.9----29.73- 52.0-----
2024-05-27 08:20 pm NW 6.0 8.9----29.73- 52.3-----
2024-05-27 08:10 pmNNW 7.0 11.1----29.72- 52.5-----
2024-05-27 08:02 pmNNW 8.0 18.1----29.72- 52.3-----
2024-05-27 08:00 pmNNW 8.0 11.1----29.72+0.07 52.3-----
2024-05-27 07:50 pm N 8.9 14.0----29.72- 52.2-----
2024-05-27 07:40 pmNNW 11.1 15.0----29.72- 52.2-----
2024-05-27 07:30 pmNNW 13.0 15.9----29.71- 52.0-----
2024-05-27 07:20 pmNNW 14.0 18.1----29.71- 51.8-----
2024-05-27 07:10 pmNNW 14.0 18.1----29.71- 52.2-----
2024-05-27 07:01 pmNNW 13.0 20.0----29.71- 52.2-----
2024-05-27 07:00 pmNNW 13.0 17.1----29.71+0.09 52.2-----
2024-05-27 06:50 pmNNW 14.0 17.1----29.70- 52.5-----
2024-05-27 06:40 pmNNW 12.0 17.1----29.70- 52.7-----
2024-05-27 06:30 pmNNW 15.0 17.1----29.70- 52.7-----
2024-05-27 06:20 pmNNW 15.0 20.0----29.69- 52.9-----
2024-05-27 06:10 pmNNW 12.0 15.0----29.69- 53.4-----
2024-05-27 06:01 pmNNW 11.1 18.1----29.68- 53.1-----
2024-05-27 06:00 pmNNW 11.1 14.0----29.68+0.07 53.1-----
2024-05-27 05:50 pm N 11.1 18.1----29.68- 53.1-----
2024-05-27 05:40 pmNNW 15.0 17.1----29.68- 53.1-----
2024-05-27 05:30 pm N 12.0 14.0----29.67- 53.2-----
2024-05-27 05:20 pm N 11.1 13.0----29.66- 53.4-----
2024-05-27 05:10 pm N 11.1 15.0----29.65- 53.4-----
2024-05-27 05:00 pm N 12.0 15.0----29.65- 53.8-----
2024-05-27 04:50 pm N 13.0 15.0----29.64- 54.0-----
2024-05-27 04:40 pm N 12.0 15.0----29.64- 53.8-----
2024-05-27 04:30 pm N 14.0 19.0----29.64- 54.1-----
2024-05-27 04:20 pm N 15.9 21.0----29.63- 54.1-----
2024-05-27 04:10 pmNNE 19.0 22.9----29.62- 54.5-----
2024-05-27 04:00 pm N 19.0-----29.62- 54.7-----
2024-05-27 03:50 pmNNE 21.0 25.1----29.61- 54.9-----
2024-05-27 03:40 pmNNE 22.0 26.0----29.61- 54.7-----
2024-05-27 03:30 pmNNE 17.1 20.0----29.61- 54.0-----
2024-05-27 03:20 pm N 14.0 19.0----29.61- 54.0-----
2024-05-27 03:10 pm N 14.0 17.1----29.61- 54.0-----
2024-05-27 03:00 pmNNE 15.9 21.0----29.61- 54.1-----
2024-05-27 02:50 pm N 17.1 20.0----29.60- 53.6-----
2024-05-27 02:40 pm N 11.1 15.0----29.60- 53.4-----
2024-05-27 01:40 pmNNE 17.1 22.0----29.58- 53.2-----
2024-05-27 01:30 pmNNE 18.1 20.0----29.58- 53.2-----
2024-05-27 01:20 pmNNE 15.9 20.0----29.58- 53.2-----
2024-05-27 01:10 pmNNE 15.9 20.0----29.58- 53.1-----
2024-05-27 01:00 pmNNE 18.1 22.0----29.58+0.06 53.2-----
2024-05-27 12:50 pmNNE 18.1 21.0----29.57- 53.2-----
2024-05-27 12:40 pmNNE 17.1 22.9----29.57- 53.2-----
2024-05-27 12:30 pmNNE 18.1 21.0----29.56- 53.2-----
2024-05-27 12:20 pmNNE 19.0 22.9----29.56- 53.2-----
2024-05-27 12:10 pmNNE 18.1 21.0----29.56- 53.2-----
2024-05-27 12:00 pmNNE 17.1 22.0----29.55+0.04 53.4-----
2024-05-27 11:50 am NE 18.1 21.0----29.55- 53.4-----